Regional Weather Roundup
Issued by NWS

Home | Current Version | Previous Version | Graphics & Text | Print | Product List | Glossary On
Versions: 1 2 3 4 5 6 7 8 9 10 11 12 13 14 15 16 17 18 19 20 21 22 23 24 25 26 27 28 29 30 31 32 33 34 35 36 37 38 39 40 41 42 43 44 45 46 47 48 49 50
000
ASUS43 KDTX 291710
RWRMI
MICHIGAN HOURLY REGIONAL WEATHER ROUNDUP
NATIONAL WEATHER SERVICE DETROIT/PONTIAC MI
ISSUED BY NATIONAL WEATHER SERVICE GRAND RAPIDS MI
100 PM EDT MON MAY 29 2017

NOTE: "FAIR" INDICATES FEW OR NO CLOUDS BELOW 12,000 FEET WITH NO
SIGNIFICANT WEATHER AND/OR OBSTRUCTION TO VISIBILITY.

MIZ047>049-052>055-059>063-066>070-074>076-081>083-291800-
SOUTHEAST LOWER MICHIGAN

CITY           SKY/WX    TMP DP  RH WIND       PRES   REMARKS
ADRIAN         MOSUNNY   75  53  46 W10G20    29.83S
ALMA           MOSUNNY   75  42  30 W20       29.76R
ANN ARBOR      MOSUNNY   75  57  53 S14       29.80S
BAD AXE        SUNNY     74  49  42 SW9G18    29.75S
DETROIT CITY   SUNNY     75  54  47 S13       29.79F
DETROIT        SUNNY     77  55  46 SW16      29.81S
FLINT          MOSUNNY   76  49  38 SW12G23   29.76F
GROSSE ILE     SUNNY     69  61  74 S12       29.80F
HILLSDALE      SUNNY     73  50  43 W12G21    29.83R
HOWELL         MOSUNNY   76  45  32 W17G23    29.78S

CITY           SKY/WX    TMP DP  RH WIND       PRES   REMARKS
JACKSON        MOSUNNY   76  49  38 W18G25    29.80S
LANSING        SUNNY     78  42  27 W26G32    29.79R
MASON          MOSUNNY   76  48  36 W13G25    29.79R
MONROE         SUNNY     78  53  42 SW14G21   29.81S
MT. CLEMENS    MOSUNNY   76  53  43 SW12G18   29.78F
PONTIAC        MOSUNNY   75  47  36 SW16G23   29.78S
PORT HOPE        N/A     75  53  46 VRB7      29.72F
PORT HURON     MOSUNNY   73  48  40 SW9G16    29.79S
TRI CITIES     MOSUNNY   77  47  34 SW23G32   29.73S
YPSILANTI      SUNNY     77  58  51 SW12G25   29.81S
$$
MIZ043>046-050>051-056>058-064>065-071>073-077>080-291800-
SOUTHWEST LOWER MICHIGAN

CITY           SKY/WX    TMP DP  RH WIND       PRES   REMARKS
BATTLE CREEK   LGT RAIN  76  43  30 W20G29    29.81S
BENTON HARBOR  PTSUNNY   71  46  40 SW15      29.83R
BIG RAPIDS     SUNNY     70  39  32 W17G31    29.74R
COLDWATER      MOSUNNY   76  46  34 W14G24    29.83R
HOLLAND        MOSUNNY   70  47  43 W13       29.81S
GRAND RAPIDS   PTSUNNY   71  45  39 W18G24    29.79S
KALAMAZOO      SUNNY     76  42  29 W16G23    29.81S
MARSHALL       SUNNY     76  46  34 W20       29.80S
MOUNT PLEASANT SUNNY     74  41  30 W17G29    29.73S
MUSKEGON       MOSUNNY   69  47  45 SW13      29.79R
STURGIS        SUNNY     76  51  42 W10G16    29.83R
$$
MIZ016>042-291800-
NORTHERN LOWER MICHIGAN

CITY           SKY/WX    TMP DP  RH WIND       PRES   REMARKS
ALPENA         TSTM      68  51  54 SW5       29.68F
BEAVER ISLAND  SUNNY     62  50  66 SW10G22   29.67S
BELLAIRE       PTSUNNY   65  47  50 S7        29.69F
CADILLAC       PTSUNNY   67  44  42 W15G22    29.71R
CHARLEVOIX     MOSUNNY   63  49  60 SW8       29.72R
GAYLORD        PTSUNNY   66  45  46 SW9       29.70F
HOUGHTON LAKE  PTSUNNY   70  39  32 SW23G36   29.70S
MANISTEE       SUNNY     65  49  56 W17G25    29.72R
OSCODA         MOSUNNY   72  51  46 S13G23    29.69F
PELLSTON       PTSUNNY   59  49  69 SW8       29.69R
TRAVERSE CITY  CLOUDY    67  46  47 SW7       29.68S
LUDINGTON      SUNNY     65  51  61 SW10      29.74S
$$
MIZ007>008-015-291800-
EASTERN UPPER MICHIGAN

CITY           SKY/WX    TMP DP  RH WIND       PRES   REMARKS
KINROSS        CLOUDY    61  52  72 S8G16     29.66S
MACKINAC ISLAN CLOUDY    58  50  74 SW7       29.67S
NEWBERRY       MOSUNNY   59  53  78 S10       29.63S
S. S. MARIE    PTSUNNY   63  55  75 SE10      29.64F
$$
MIZ004>006-011>014-085-291800-
CENTRAL UPPER MICHIGAN

CITY           SKY/WX    TMP DP  RH WIND       PRES   REMARKS
MANISTIQUE     MOSUNNY   56  53  87 S10G16    29.62S
ESCANABA       LGT RAIN  60  54  80 SW9       29.63R
SAWYER-GWINN   PTSUNNY   59  50  72 SW13      29.62R
$$
MIZ001>003-009>011-084-291800-
WESTERN UPPER MICHIGAN

CITY           SKY/WX    TMP DP  RH WIND       PRES   REMARKS
IRON MOUNTAIN  CLOUDY    62  46  55 W16G23    29.62F
HOUGHTON       RAIN      49  46  90 W14       29.59R
COPPER HARBOR    N/A     47  45  93 N3        29.57S
IRONWOOD       LGT RAIN  54  51  90 W12       29.66R
$$

ABBREVIATIONS USED IN REMARKS
   TC - TEMPERATURE IN CELSIUS
  WCI - WIND CHILL INDEX
   HX - HEAT INDEX
  VSB - VISIBILITY





USA.gov is the U.S. government's official web portal to all federal, state and local government web resources and services.